[[{"header":{"parameterUnit":"m.s-1","parameterCategory":1,"la1":30.2991,"la2":30.254,"lo1":-89.0895,"lo2":-89.0444,"dy":0.0017,"dx":0.0017,"nx":28,"ny":28,"refTime":"2024-05-19T09:00:00:Z","depth":0,"parameterNumber":2,"parameterNumberName":"U-component_of_WINDS"},"data":[0,0,0,0,0,0,0,0,0,0,0,0,0,0,0,0,0,0,0,0,0,0,0,0,0,0,0,0,0,0,0,0,0,0,0,0,0,0,0,0,0,0,0,0,0,0,0,0,0,0,0,0,0,0,0,0,0,0,1.0988,1.099,0,1.1119,1.1121,1.1122,1.1153,1.1152,1.1151,1.115,1.1286,1.129,1.1295,0,0,0,0,0,0,0,0,0,0,0,0,0,1.0765,1.0769,1.0988,1.099,1.0991,1.1119,1.1121,1.1123,1.1153,1.1152,1.1151,1.115,1.1284,1.129,1.1295,0,0,0,0,0,0,0,0,0,0,0,0,0,1.0875,1.077,1.0988,1.1022,1.1026,1.1119,1.1121,1.1123,1.1153,1.1152,1.115,1.1149,1.1283,1.1289,1.1296,1.1364,0,0,1.1316,1.1319,0,0,0,0,0,0,0,0,1.0869,1.0884,1.1015,1.102,1.1025,1.1118,1.1092,1.1204,1.1153,1.1105,1.115,1.1148,1.1231,1.1242,1.127,1.1371,1.1376,1.1317,1.1321,1.1324,1.1326,0,0,0,0,0,0,0,1.0861,1.0878,1.104,1.1017,1.1023,1.1031,1.1045,1.1113,1.1174,1.1109,1.1112,1.1127,1.1234,1.1263,1.1273,1.1378,1.1317,1.1323,1.1327,1.1329,1.1541,1.1543,0,0,0,0,0,0,1.0848,1.0871,1.1036,1.1044,1.0942,1.1036,1.1052,1.109,1.1174,1.1185,1.1128,1.1128,1.1252,1.1265,1.1278,1.1363,1.1324,1.133,1.1334,1.154,1.1542,1.1543,0,0,0,0,0,0,1.0843,1.0862,1.1031,1.0958,1.0981,1.1041,1.1083,1.1093,1.1122,1.1188,1.1199,1.1147,1.1252,1.1269,1.1342,1.1368,1.1333,1.1339,1.1538,1.154,1.1543,1.1534,0,0,0,0,0,0,1.0836,1.086,1.0886,1.0959,1.0984,1.1092,1.1085,1.1096,1.1134,1.1135,1.1208,1.1219,1.1252,1.1332,1.1349,1.1377,1.1344,1.1536,1.1539,1.1542,1.1532,1.1535,1.1539,0,0,0,0,0,1.0828,1.0879,1.0888,1.0907,1.1018,1.1094,1.1108,1.1145,1.1136,1.1163,1.1205,1.1217,1.1363,1.1339,1.1359,1.1389,1.1534,1.1538,1.1542,1.153,1.1535,1.1538,0,0,0,0,0,0,1.0809,1.0889,1.09,1.0976,1.1027,1.1099,1.1134,1.1148,1.1204,1.1203,1.1246,1.1263,1.1333,1.1369,1.1341,1.1459,1.1448,1.1456,1.1433,1.1438,1.1441,1.1431,1.135,0,0,0,0,0,1.0813,1.0867,1.0935,1.0995,1.1021,1.1073,1.1107,1.1131,1.1186,1.1208,1.1256,1.131,1.1368,1.1405,1.1462,1.1537,1.1554,1.1568,1.1571,1.1573,1.1579,1.1621,1.1628,1.1555,1.1555,1.1555,0,0,1.0823,1.0874,1.0906,1.0993,1.1036,1.1091,1.1091,1.115,1.1191,1.1218,1.1289,1.1326,1.1389,1.1464,1.1499,1.1495,1.1603,1.1578,1.1579,1.1584,1.1625,1.1632,1.1638,1.1558,1.1557,1.1557,0,0,1.0869,1.0913,1.0968,1.1011,1.1076,1.111,1.1123,1.1192,1.1217,1.129,1.1311,1.1361,1.146,1.1504,1.1539,1.1602,1.1615,1.1619,1.1636,1.1676,1.1682,1.1687,1.1709,1.1716,1.1625,1.1625,1.1625,0,1.0874,1.0957,1.0995,1.1052,1.1089,1.1116,1.1171,1.1212,1.1292,1.1317,1.1312,1.1436,1.1481,1.1566,1.158,1.1609,1.1625,1.1611,1.1678,1.1684,1.1689,1.171,1.1718,1.1625,1.1625,1.1625,1.1625,0,1.0959,1.1016,1.1053,1.1129,1.1171,1.1227,1.1273,1.1311,1.1331,1.1366,1.1439,1.1493,1.1561,1.1584,1.1604,1.1671,1.1667,1.1669,1.1659,1.1695,1.1716,1.1724,1.1625,1.1625,1.1625,1.1625,0,0,1.0996,1.1092,1.1104,1.1139,1.1212,1.1258,1.1315,1.1381,1.1412,1.1467,1.1516,1.1599,1.1601,1.1641,1.1667,1.1702,1.1747,1.1701,1.1703,1.1707,1.1824,1.182,1.1829,1.1757,1.1758,1.176,1.1818,0,1.105,1.1153,1.1188,1.1273,1.1326,1.1352,1.1402,1.1453,1.1487,1.1537,1.1575,1.1633,1.1632,1.1656,1.1692,1.1734,1.1771,1.173,1.1802,1.1804,1.1785,1.184,1.1837,1.1889,1.1826,1.1828,1.1829,0,1.1127,1.1182,1.1272,1.1338,1.1362,1.1406,1.1469,1.1517,1.1574,1.1597,1.1641,1.1664,1.1725,1.1711,1.1796,1.1767,1.1799,1.1824,1.1827,1.1834,1.1818,1.1848,1.1907,1.1915,1.1842,1.1841,1.184,0,1.1144,1.124,1.1306,1.1335,1.1414,1.1445,1.1479,1.1535,1.1573,1.1628,1.1652,1.1714,1.1748,1.1796,1.1835,1.1821,1.1915,1.1906,1.1935,1.1934,1.1953,1.1951,1.2017,1.1975,1.1975,1.1975,1.1975,0,1.12,1.1254,1.1315,1.1355,1.1416,1.1457,1.1516,1.1552,1.1602,1.165,1.1677,1.1721,1.1771,1.1822,1.1853,1.1918,1.1933,1.1953,1.196,1.195,1.1947,1.1971,1.1968,1.1977,1.1977,1.1976,1.1976,0,1.1229,1.1272,1.1345,1.1414,1.1433,1.1474,1.1533,1.1574,1.1609,1.1669,1.1686,1.1741,1.1802,1.1846,1.1926,1.1947,1.2016,1.2024,1.1996,1.2,1.2027,1.2023,1.2109,1.2122,1.2072,1.2072,1.2073,0,1.1261,1.1303,1.1376,1.141,1.1444,1.1498,1.1536,1.1578,1.1616,1.1685,1.1717,1.178,1.1833,1.193,1.1977,1.2038,1.2047,1.2073,1.2056,1.2044,1.2046,1.2043,1.2047,1.2075,1.2075,1.2076,1.2076,0,1.1314,1.1333,1.1387,1.1447,1.1492,1.1542,1.1592,1.1618,1.1669,1.1711,1.1773,1.1814,1.1895,1.1957,1.2022,1.2058,1.2076,1.2081,1.2091,1.208,1.2062,1.2071,1.2002,1.2079,1.2078,1.2078,1.2078,1.2078,1.1345,1.1383,1.144,1.1499,1.1541,1.1587,1.1628,1.1668,1.1721,1.179,1.1811,1.1876,1.1933,1.2022,1.2059,1.211,1.2109,1.2124,1.2127,1.213,1.2129,1.2054,1.2123,1.2123,1.2123,1.2123,1.2123,0,1.1399,1.1437,1.149,1.1559,1.1605,1.1617,1.1673,1.1711,1.1767,1.1819,1.187,1.1942,1.2002,1.2054,1.2117,1.2148,1.2157,1.2163,1.2161,1.2168,1.2127,1.2112,1.2154,1.2154,1.2154,1.2154,1.2154,1.2154,1.1432,1.1496,1.1522,1.1608,1.1646,1.1709,1.174,1.1783,1.1824,1.1903,1.1953,1.1986,1.2038,1.2105,1.2161,1.2174,1.2196,1.2199,1.2215,1.2175,1.2171,1.2168,1.2154,1.2204,1.2204,1.2252,1.2252,1.2252]},{"header":{"parameterUnit":"m.s-1","parameterCategory":1,"la1":30.2991,"la2":30.254,"lo1":-89.0895,"lo2":-89.0444,"dy":0.0017,"dx":0.0017,"nx":28,"ny":28,"refTime":"2024-05-19T09:00:00:Z","depth":0,"parameterNumber":3,"parameterNumberName":"V-component_of_WINDS"},"data":[0,0,0,0,0,0,0,0,0,0,0,0,0,0,0,0,0,0,0,0,0,0,0,0,0,0,0,0,0,0,0,0,0,0,0,0,0,0,0,0,0,0,0,0,0,0,0,0,0,0,0,0,0,0,0,0,0,0,2.1375,2.1374,0,2.1328,2.1327,2.1327,2.1263,2.1262,2.1261,2.126,2.1211,2.1211,2.121,0,0,0,0,0,0,0,0,0,0,0,0,0,2.1409,2.1409,2.1375,2.1374,2.1374,2.1328,2.1327,2.1326,2.1263,2.1262,2.1261,2.126,2.1211,2.1211,2.121,0,0,0,0,0,0,0,0,0,0,0,0,0,2.1382,2.1409,2.1375,2.1337,2.1333,2.1328,2.1327,2.1326,2.1264,2.1262,2.126,2.1259,2.1211,2.1211,2.121,2.1239,0,0,2.1209,2.1208,0,0,0,0,0,0,0,0,2.1383,2.138,2.1343,2.1339,2.1335,2.13,2.1321,2.1297,2.1264,2.129,2.126,2.1258,2.1242,2.1239,2.1233,2.1236,2.1234,2.1209,2.1208,2.1208,2.1208,0,0,0,0,0,0,0,2.1385,2.1382,2.1356,2.1342,2.1338,2.1321,2.1316,2.1316,2.1275,2.1287,2.1283,2.1278,2.1239,2.1234,2.1232,2.1234,2.1209,2.1208,2.1208,2.1208,2.1257,2.1259,0,0,0,0,0,0,2.1393,2.1384,2.1358,2.1355,2.1356,2.1322,2.1316,2.1313,2.1275,2.1268,2.1279,2.1275,2.1235,2.1232,2.123,2.126,2.1208,2.1208,2.1207,2.1256,2.1257,2.1259,0,0,0,0,0,0,2.1394,2.1391,2.136,2.1368,2.1363,2.1323,2.132,2.1313,2.1307,2.1269,2.1261,2.1282,2.1234,2.123,2.1237,2.1258,2.1207,2.1207,2.1254,2.1256,2.1258,2.1322,0,0,0,0,0,0,2.1395,2.1392,2.1403,2.1369,2.1363,2.1368,2.1321,2.1313,2.1306,2.1301,2.1269,2.1262,2.1232,2.1238,2.1236,2.1256,2.1207,2.1252,2.1255,2.1258,2.1318,2.1327,2.1334,0,0,0,0,0,2.1397,2.1423,2.1404,2.1401,2.1375,2.137,2.1366,2.1332,2.1308,2.1319,2.1294,2.1263,2.1256,2.1239,2.1237,2.1257,2.125,2.1254,2.1257,2.1315,2.1325,2.1334,0,0,0,0,0,0,2.146,2.1417,2.1396,2.1412,2.1395,2.1359,2.1371,2.1344,2.1333,2.1328,2.1285,2.1279,2.129,2.1274,2.1256,2.1282,2.1248,2.1251,2.1292,2.1302,2.131,2.1313,2.1206,0,0,0,0,0,2.1476,2.1475,2.1438,2.1455,2.1448,2.1411,2.1407,2.1382,2.1363,2.1355,2.1331,2.1313,2.1306,2.1303,2.1295,2.1315,2.1307,2.1328,2.1335,2.1342,2.1346,2.1354,2.1363,2.1271,2.1271,2.1271,0,0,2.1508,2.1485,2.1487,2.1467,2.1451,2.1451,2.1406,2.1407,2.1407,2.1355,2.136,2.1342,2.1319,2.1332,2.1337,2.1319,2.1369,2.1347,2.1352,2.1352,2.1359,2.1368,2.1375,2.1274,2.1273,2.1273,0,0,2.1568,2.155,2.1563,2.1548,2.1524,2.1499,2.1502,2.147,2.1456,2.146,2.1422,2.142,2.141,2.1395,2.1386,2.1439,2.141,2.1438,2.1479,2.1488,2.1495,2.1501,2.152,2.1527,2.1441,2.1441,2.1441,0,2.1611,2.161,2.1573,2.1577,2.1569,2.1523,2.1535,2.1522,2.1497,2.1492,2.1472,2.1458,2.1439,2.1448,2.1461,2.1456,2.1457,2.1441,2.1497,2.1503,2.1508,2.1525,2.1533,2.1445,2.1444,2.1444,2.1444,0,2.1665,2.1664,2.1677,2.1654,2.1648,2.1656,2.1619,2.1617,2.1593,2.157,2.1574,2.155,2.1536,2.1536,2.1512,2.1542,2.1531,2.1505,2.147,2.1521,2.1537,2.1543,2.145,2.1448,2.1447,2.1447,0,0,2.1763,2.1719,2.1725,2.1713,2.1683,2.1682,2.1688,2.1674,2.1673,2.1657,2.1661,2.1653,2.1628,2.1618,2.1591,2.1599,2.1643,2.1572,2.1571,2.1586,2.1673,2.1694,2.1702,2.1623,2.1624,2.1625,2.1675,0,2.1817,2.1825,2.1791,2.1808,2.1806,2.1762,2.1767,2.1749,2.1728,2.1723,2.1699,2.1694,2.1662,2.1655,2.1661,2.1636,2.166,2.1632,2.1625,2.1626,2.1633,2.171,2.1732,2.178,2.1681,2.1682,2.1683,0,2.1881,2.1869,2.1885,2.1854,2.1852,2.1857,2.1842,2.1838,2.1817,2.18,2.1789,2.1758,2.1761,2.1728,2.173,2.1713,2.1707,2.1695,2.1696,2.1694,2.1658,2.1711,2.1795,2.1803,2.1692,2.1691,2.1691,0,2.1951,2.1939,2.1947,2.1939,2.1902,2.1907,2.1892,2.1869,2.1863,2.1849,2.1844,2.1831,2.1824,2.1814,2.178,2.1759,2.1787,2.1751,2.1773,2.1774,2.1781,2.1782,2.1867,2.1778,2.1778,2.1778,2.1778,0,2.2015,2.2027,2.1978,2.1983,2.1995,2.1955,2.1968,2.1948,2.1928,2.1928,2.1888,2.1889,2.1845,2.184,2.1814,2.182,2.1817,2.1803,2.1796,2.1807,2.1809,2.1804,2.18,2.178,2.1779,2.1779,2.1779,0,2.2096,2.2063,2.2069,2.2035,2.2026,2.2036,2.2006,2.2009,2.1985,2.1985,2.1983,2.1945,2.1938,2.1903,2.1888,2.187,2.1885,2.1871,2.1893,2.1888,2.1913,2.1911,2.1997,2.2007,2.1913,2.1914,2.1914,0,2.2139,2.2147,2.2113,2.211,2.2097,2.2094,2.2087,2.2049,2.2043,2.2019,2.2025,2.2014,2.2004,2.1994,2.1965,2.1952,2.1937,2.1969,2.1935,2.1946,2.1938,2.1938,2.1939,2.1976,2.1977,2.1978,2.1979,0,2.2219,2.2202,2.2195,2.2181,2.2175,2.2163,2.2148,2.2148,2.2105,2.2101,2.2093,2.2085,2.2069,2.2059,2.2042,2.2025,2.1995,2.199,2.1994,2.2006,2.2018,2.2012,2.1913,2.1988,2.1987,2.1986,2.1986,2.1986,2.2282,2.2287,2.2264,2.2256,2.2241,2.2228,2.2229,2.2205,2.2198,2.2183,2.216,2.2155,2.2132,2.2106,2.2092,2.2087,2.207,2.2077,2.2078,2.2081,2.2086,2.2019,2.2084,2.2083,2.2083,2.2083,2.2083,0,2.2359,2.2342,2.2336,2.2317,2.2311,2.2283,2.2265,2.2262,2.2259,2.224,2.2231,2.2221,2.2211,2.2181,2.2168,2.217,2.2155,2.2167,2.2167,2.2164,2.2102,2.21,2.2179,2.2179,2.2179,2.2179,2.2179,2.2179,2.2399,2.2406,2.2387,2.2386,2.2368,2.2364,2.2356,2.2344,2.2328,2.232,2.2312,2.2292,2.2269,2.2253,2.2242,2.2233,2.223,2.2247,2.2234,2.2177,2.2168,2.2159,2.2157,2.2247,2.2247,2.2296,2.2296,2.2297]}]]